Location: El Bakhil
(32.7726°N, 5.5387°W)
Time: 05:15:13
(UTC+00:00)

Nadezhda 3 Rocket - Pass Details

Date: 03 March 2021
Orbit: 957 x 999 km, 82.9° (Epoch: 12 April)

Event Time Altitude Azimuth Distance (km) Brightness Sun altitude
Rises 19:16:03 0° 355° (N) 3,722 7.1 -12.4°
Reaches altitude 10° 19:18:36 10° 357° (N) 2,771 6.4 -12.9°
Maximum altitude 19:24:59 78° 83° (E) 1,023 4.0 -14.2°
Drops below altitude 10° 19:31:19 10° 171° (S) 2,753 6.2 -15.6°
Sets 19:33:50 0° 172° (S) 3,696 6.9 -16.1°
